Weather History for KLAS - May, 2013

Change the Weather History Date:

Friday, May 3, 2013

  Actual Average Record
Temperature  
Mean Temperature 73 °F 73 °F  
Max Temperature 87 °F 84 °F 108 °F (1947)
Min Temperature 59 °F 62 °F 38 °F (1942)
Degree Days  
Heating Degree Days 0 1  
Month to date heating degree days 0 3  
Since 1 July heating degree days 1757 1946  
Cooling Degree Days 8 9  
Month to date cooling degree days 19 25  
Year to date cooling degree days 299 185  
Growing Degree Days 23 (Base 50)    
Moisture  
Dew Point 4 °F    
Average Humidity 9    
Maximum Humidity 14    
Minimum Humidity 3    
Precipitation  
Precipitation 0.00 in 0.00 in 0.01 in (1941)
Month to date precipitation 0.00 0.01  
Year to date precipitation 0.61 1.90  
Snow  
Snow 0.00 in 0.00 in 0.00 in ()
Month to date snowfall 0.0 0.0  
Since 1 July snowfall T 0.3  
Snow Depth 0.00 in    
Sea Level Pressure  
Sea Level Pressure 29.90 in    
Wind  
Wind Speed 5 mph (South)    
Max Wind Speed 13 mph    
Max Gust Speed 15 mph    
Visibility 10 miles    
Events      
T = Trace of Precipitation, MM = Missing Value Source: NWS Daily Summary

Daily Weather History Graph

Daily Weather History Graph

Search for Another Location

Airport or City:

Trip Planner

Search our weather history database for the weather conditions in past years. The results will help you decide how hot, cold, wet, or windy it might be!

Date:

Astronomy

May. 03, 2013 Rise Set
Actual Time 5:45 AM PDT 7:30 PM PDT
Civil Twilight 5:17 AM PDT 7:57 PM PDT
Nautical Twilight 4:44 AM PDT 8:31 PM PDT
Astronomical Twilight 4:09 AM PDT 9:06 PM PDT
Moon 2:00 AM PDT (5/3) 1:39 PM PDT (5/3)
Length of Visible Light 14h 39m
Length of Day
13h 44m
Waning Crescent, 36% of the Moon is Illuminated
May 3
Waning Crescent
May 9
New
May 17
First Quarter
May 24
Full
May 31
Last Quarter

Hourly Weather History & Observations

Time (PDT) Temp. Dew Point Humidity Pressure Visibility Wind Dir Wind Speed Gust Speed Precip Events Conditions
12:56 AM 64.9 °F 7.0 °F 10% 30.09 in 10.0 mi South 4.6 mph - N/A   Clear
1:56 AM 69.1 °F 8.1 °F 9% 30.07 in 10.0 mi NE 3.5 mph - N/A   Clear
2:56 AM 64.9 °F 10.0 °F 12% 30.07 in 10.0 mi ESE 3.5 mph - N/A   Clear
3:56 AM 63.0 °F 12.0 °F 14% 30.06 in 10.0 mi SSW 9.2 mph - N/A   Clear
4:56 AM 62.1 °F 12.0 °F 14% 30.05 in 10.0 mi SSW 6.9 mph - N/A   Clear
5:56 AM 59.0 °F 10.0 °F 14% 30.05 in 10.0 mi SSW 8.1 mph - N/A   Clear
6:56 AM 64.9 °F 14.0 °F 14% 30.04 in 10.0 mi South 4.6 mph - N/A   Clear
7:56 AM 68.0 °F 9.0 °F 10% 30.04 in 10.0 mi SE 3.5 mph - N/A   Clear
8:56 AM 71.1 °F 9.0 °F 9% 30.03 in 10.0 mi Calm Calm - N/A   Clear
9:56 AM 73.9 °F 9.0 °F 8% 30.01 in 10.0 mi Calm Calm - N/A   Clear
10:56 AM 75.2 °F 6.8 °F 7% 30.04 in 10.0 mi Variable 4.6 mph - N/A   Clear
11:56 AM 80.1 °F 5.0 °F 6% 29.96 in 10.0 mi Calm Calm - N/A   Clear
12:56 PM 80.1 °F 3.0 °F 5% 29.92 in 10.0 mi South 6.9 mph - N/A   Clear
1:56 PM 82.0 °F 1.9 °F 5% 29.88 in 10.0 mi West 4.6 mph - N/A   Clear
2:56 PM 82.9 °F 1.0 °F 4% 29.83 in 10.0 mi Variable 3.5 mph - N/A   Partly Cloudy
3:56 PM 86.0 °F -2.9 °F 4% 29.79 in 10.0 mi Calm Calm - N/A   Partly Cloudy
4:56 PM 86.0 °F -0.9 °F 4% 29.76 in 10.0 mi Calm Calm - N/A   Partly Cloudy
5:56 PM 86.0 °F -4.0 °F 4% 29.74 in 10.0 mi SSE 4.6 mph - N/A   Partly Cloudy
6:56 PM 84.9 °F -6.0 °F 4% 29.72 in 10.0 mi SE 5.8 mph - N/A   Partly Cloudy
7:56 PM 82.0 °F -4.0 °F 4% 29.72 in 10.0 mi ESE 4.6 mph - N/A   Clear
8:56 PM 79.0 °F -0.9 °F 4% 29.72 in 10.0 mi SSW 5.8 mph - N/A   Clear
9:56 PM 75.9 °F 3.0 °F 6% 29.71 in 10.0 mi SSW 8.1 mph - N/A   Clear
10:56 PM 73.0 °F 1.0 °F 6% 29.69 in 10.0 mi SSW 10.4 mph - N/A   Clear
11:56 PM 72.0 °F 1.0 °F 6% 29.68 in 10.0 mi South 11.5 mph - N/A   Clear